Showing default

ALOUETTE 1 (S-27), 424

Orbit data source: Space-Track

ALOUETTE 1 (S-27), 424 is a payload satellite owned by DRTE (CA) in LEO that was launched on Sat, 29 Sep 1962 UTC via a THOR AGENA B launch vehicle from the Air Force Western Test Range (AFWTR). Payload-class satellites include a variety of spacecraft equipped with specific instruments for various scientific and technological missions. These include communications satellites like Starlink; space stations such as the ISS; scientific satellites like the Hubble; Earth observation satellites from companies like Planet Labs, Umbra, and HawkEye 360; GPS; miniature CubeSats for education and research; and military/defense satellites.

Loading next visibility...
Identifier
424, 1962-049A
Orbit
LEO
Country
Flag of CACA
Related business
Manufacturer
DEHAVT/RCAV
Mission
Spacecraft
Bus & Motor
ALOUETTE, Unknown motor
Mass
145 kg wet, 145 kg dry
Launch date (UTC)
1962-09-29 (64 years ago)
Launch vehicle
THOR AGENA B
Launch site
Air Force Western Test Range (AFWTR)
Object type
Payload
Rocket body
Debris
Shape & HBR
Unknown
Radar Cross Section
Large (>1 m²)

Expand to show TLE details & history
Last TLE update: 13 hours ago

TLE from 13 hours ago
0 ALOUETTE 1 (S-27)
1   424U 62049A   26196.16635595  .00000064  00000-0  63143-4 0  9996
2   424  80.4645 228.6980 0023418 162.1589 198.0384 13.69595190184941
Epoch: 2026-07-15T03:59Z
TLE epoch observation values (Epoch: 2026-07-15T03:59:33.154Z)
Latitude
-0.00003°
Longitude
-124.21621°
Altitude
1,020.281 km
Speed
7.333 km/s
True Right ascension
15h 14m 47s
True Declination
0° 00' 00"
Sunlit
Object was in daylight at epoch
Visualization orbit readout
Latitude
Unknown
Longitude
Unknown
Altitude
Unknown
Speed
Unknown
Apparent Right ascension
Unknown
Apparent Declination
Unknown
Sunlit
N/A
Visualization observer readout
Local Sidereal Time
05:05:45
Azimuth
Unknown
Elevation
Unknown
Doppler factor
Unknown
Orbital elements
Apogee altitude
1,015.566 km
Perigee altitude
981.017 km
Semi-major axis
7,376.428 km
Eccentricity
0.00234
Inclination
80.4645°
RAAN
228.698°
Arg. of periapsis
162.1589°
True anomaly
197.95553°
Mean anomaly
198.0384°
Eccentric anomaly
197.99694°
Mean motion
3.42589 °/min
Orbital period
105.08 mins
BSTAR
0.000063143
Loading maneuver chart data...
Computing Atmospheric mass density...
Loading historical data...
Loading historical data...
Loading historical data...
Loading historical data...
Loading historical data...
Loading historical data...
Loading historical data...
Other satellites on launch #49 in the year 1962 (1962-09-29 UTC)

Documentation

Showing up to 5 results
|